Location: Driftpile
(55.3500°N, 115.7667°W)
Time: 01:59:03
(UTC+00:00)

N. Korean satellite - Pass Details

Date: 06 December 2021
Orbit: 446 x 492 km, 97.3° (Epoch: 17 January)

Event Time Altitude Azimuth Distance (km) Brightness Sun altitude
Rises 14:44:45 0° 0° (N) 2,476 9.9 -9.0°
Reaches altitude 10° 14:47:40 10° 332° (NNW) 1,592 8.7 -8.6°
Maximum altitude 14:49:17 13° 304° (WNW) 1,412 8.2 -8.4°
Drops below altitude 10° 14:50:54 10° 275° (W) 1,583 8.6 -8.2°
Sets 14:53:47 0° 247° (WSW) 2,448 9.8 -7.9°
